AirNav   Phillips 66 Aviation Fuel
 
 534 users online  

KGDY Grundy Municipal Airport
Grundy, Virginia, USA

GOING TO GRUNDY?


FAA INFORMATION EFFECTIVE 24 MAY 2018

Location

FAA Identifier: GDY
Lat/Long: 37-13-56.6150N / 082-07-29.9880W
37-13.943583N / 082-07.499800W
37.2323931 / -82.1249967
(estimated)
Elevation: 2304 ft. / 702.3 m (surveyed)
Variation: 06W (2000)
From city: 3 miles SW of GRUNDY, VA
Time zone: UTC -4 (UTC -5 during Standard Time)
Zip code: 24656

Airport Operations

Airport use: Open to the public
Control tower: no
ARTCC: INDIANAPOLIS CENTER
FSS: LEESBURG FLIGHT SERVICE STATION
NOTAMs facility: DCA (NOTAM-D service available)
Attendance: UNATNDD
Wind indicator: yes
Segmented circle: no
Lights: ACTVT MIRL RY 04/22 - CTAF; HIGH INTSTY ONLY.
Beacon: white-green (lighted land airport)
Operates sunset to sunrise.

Airport Communications

CTAF/UNICOM: 123.0
WX AWOS-3 at JFZ (19 nm SE): 118.075 (276-596-9927)
  • APCH/DEP SERVICE PRVDD BY INDIANAPOLIS ARTCC ON FREQS 126.575/257.850 (LYNCH RCAG).

Nearby radio navigation aids

VOR radial/distance  VOR name  Freq  Var
GZGr357/24.5GLADE SPRING VOR/DME110.2002W

Airport Services

Parking: tiedowns
Airframe service: NONE
Powerplant service: NONE
Bottled oxygen: NONE
Bulk oxygen: NONE

Runway Information

Runway 4/22

Dimensions: 2256 x 60 ft. / 688 x 18 m
Surface: asphalt, in good condition
Weight bearing capacity: 
Single wheel: 7.0
Runway edge lights: medium intensity
RUNWAY 4  RUNWAY 22
Latitude: 37-13.796083N37-14.091083N
Longitude: 082-07.641217W082-07.358383W
Elevation: 2304.0 ft.2304.0 ft.
Traffic pattern: leftleft
Runway heading: 043 magnetic, 037 true223 magnetic, 217 true
Markings: basic, in fair conditionbasic, in fair condition
Visual slope indicator: panels that may or may not be lighted, on left
FADED BUT USABLE.
panels that may or may not be lighted, on left
FADED BUT USBL.
Touchdown point: yes, no lightsyes, no lights

Airport Ownership and Management from official FAA records

Ownership: Publicly-owned
Owner: TOWN OF GRUNDY
1103 PLAZA DRIVE, SUITE D
GRUNDY, VA 24614
Phone 276-935-2551
Manager: JAMES KEEN
1103 PLAZA DRIVE, SUITE D
GRUNDY, VA 24614
Phone 276-935-2551

Airport Operational Statistics

Aircraft based on the field: 12
Single engine airplanes: 11
Multi engine airplanes: 1
    
Aircraft operations: avg 89/week *
91% local general aviation
9% transient general aviation
* for 12-month period ending 31 July 2015

Additional Remarks

PAY PHONE AT AIRPORT 276-935-8022.
WILDLIFE INVOF ARPT.

Instrument Procedures

There are no published instrument procedures at KGDY.

Some nearby airports with instrument procedures:

KJFZ - Tazewell County Airport (19 nm SE)
KLNP - Lonesome Pine Airport (24 nm SW)
KEBD - Appalachian Regional Airport (27 nm N)
KPBX - Pike County Airport-Hatcher Field (29 nm NW)
KVJI - Virginia Highlands Airport (33 nm S)
 
Loc | Ops | Rwys | IFR | FBO | Links
Com | Nav | Svcs | Stats | Notes

AirNav Hotels Sweepstakes
 
Area around KGDY (Grundy Municipal Airport)
 
Road maps at: MapQuest Bing Google
 
Aerial photo
WARNING: Photo may not be current or correct
Aerial photo of KGDY (Grundy Municipal Airport)
Photo by Chris Berg
Photo taken 23-Jun-2013
looking northeast.

Do you have a better or more recent aerial photo of Grundy Municipal Airport that you would like to share? If so, please send us your photo.

 
Sectional chart

 
Airport distance calculator
Flying to Grundy Municipal Airport? Find the distance to fly.

From to KGDY

Sunrise and sunset
Times for 25-May-2018
 Local
(UTC-4)
 Zulu
(UTC)
Morning civil twilight05:4409:44
Sunrise06:1410:14
Sunset20:3700:37
Evening civil twilight21:0701:07

Current date and time
Zulu (UTC)  25-May-2018 10:31:25
Local (UTC-4)  25-May-2018 06:31:25
 
METAR
KJFZ 
19nm SE 
251015Z AUTO 00000KT 10SM CLR 18/11 A3016 RMK AO2 T01790108
KLNP 
25nm SW 
251015Z AUTO 00000KT 10SM SCT043 18/18 A3017 RMK AO2
KPBX 
29nm NW 
251015Z AUTO 15004KT 10SM CLR 20/17 A3009 RMK AO2 T02000165
KVJI 
34nm S 
251015Z AUTO 00000KT 10SM CLR 18/17 A3014 RMK AO2 T01750165
KI16 
35nm NE 
251015Z AUTO 5SM BR SCT085 16/15 A3018 RMK AO2 T01550150
TAF
KSJS 
40nm NW 
250532Z 2506/2606 VRB03KT P6SM FEW200 FM251600 VRB05KT P6SM VCTS SCT050CB BKN150 FM260100 VRB03KT P6SM SCT060 BKN200
KBLF 
44nm E 
250527Z 2506/2606 VRB06KT P6SM FEW023 TEMPO 2506/2509 BKN023 FM251500 18005KT P6SM BKN050
KTRI 
47nm S 
250520Z 2506/2606 00000KT P6SM BKN100 FM251400 19005KT P6SM SCT035 BKN080 FM251900 20005KT P6SM VCTS BKN040CB FM260000 22005KT P6SM SCT050 BKN100
NOTAMs
Click for the latest NOTAMs
NOTAMs are issued by the DoD/FAA and will open in a separate window not controlled by AirNav.

 

 
 

Aviation Businesses, Services, and Facilities

  
 Business Name 
 
 Contact 
 
 Services / Description 
 
Distance
 
Comments
  
Standard Aviation 276-935-5119
no information available

If you are affiliated with Standard Aviation and would like to show here your services, contact info, web link, logo, and more, click here
on airport  
   write
 

Would you like to see your business listed on this page?

 If your business provides an interesting product or service to pilots, flight crews, aircraft, or users of the Grundy Municipal Airport, you should consider listing it here.  To start the listing process, click on the button below
 
Add a business
 

Other Pages about Grundy Municipal Airport

www.flyvirginia.com/...
 
Update a link
 
Copyright © AirNav, LLC. All rights reserved. Privacy Policy  Contact